Wind_Speed
22 23 23 22 22 20 19 17 16 18 22 22 24 26 25 26 26 24 24 25 24 23 22 23 23 23 23 23 23 22 21 21 22 21 20 20 20 19 17 16 15 15 15 15 15 15 15 14 14 13 13 13 12 12 11 10 10 10 11 11 10 9 8
23 23 22 20 20 18 18 17 16 18 20 21 22 23 23 24 25 23 23 24 24 23 23 24 23 22 24 24 24 23 22 22 22 21 21 21 21 19 18 17 16 16 15 15 15 15 15 15 15 14 14 14 13 13 12 11 11 11 11 11 11 10 10
24 23 21 20 19 17 17 17 16 16 18 20 22 23 24 25 26 25 25 25 25 24 24 23 22 23 25 25 24 24 23 22 22 22 22 22 21 21 19 18 16 16 15 15 15 16 16 16 16 15 15 15 15 14 14 13 13 13 12 13 12 12 12
24 22 21 21 18 16 16 16 15 16 18 21 22 23 25 26 26 27 27 27 26 26 24 22 22 24 25 25 25 24 23 23 22 22 22 22 22 22 20 18 16 16 16 16 16 16 17 16 16 16 16 16 16 16 15 14 14 14 14 15 14 14 13
23 21 21 21 19 17 17 15 15 17 20 22 22 23 25 25 27 27 27 28 28 26 24 22 23 25 26 25 25 24 24 23 23 23 23 23 23 22 20 18 17 17 17 17 17 17 17 17 18 18 18 17 17 17 17 16 16 16 16 16 16 15 15
23 22 21 21 20 19 18 17 16 16 19 21 21 24 26 27 28 28 28 30 30 27 25 23 23 25 27 26 25 25 24 24 24 23 23 23 22 22 20 18 18 18 18 18 18 18 18 18 18 18 19 19 18 19 19 18 17 17 17 17 17 16 16
24 23 22 22 22 21 19 20 19 18 19 20 21 24 28 29 31 30 30 31 31 29 28 27 26 26 27 26 26 25 25 24 24 24 23 23 22 21 20 19 19 18 18 18 19 19 19 19 19 19 20 20 21 21 21 20 19 18 19 19 18 17 17
25 25 25 23 22 22 21 22 22 21 22 22 23 26 29 31 32 32 32 33 32 31 30 29 27 26 26 26 26 26 25 24 24 24 24 23 22 21 20 20 19 19 19 19 20 20 20 20 20 20 21 22 23 23 23 22 20 19 19 20 19 19 19
25 25 24 24 23 23 23 23 22 22 24 25 26 28 30 31 33 33 34 35 33 31 31 29 27 25 26 27 27 26 25 25 25 25 24 23 22 21 20 20 20 20 20 20 21 21 21 21 21 22 23 23 24 24 23 23 21 20 20 20 20 20 20
26 26 25 25 25 25 24 22 22 23 24 26 27 28 30 31 32 32 34 35 34 31 30 29 27 26 26 27 28 27 26 26 26 25 24 23 22 21 20 20 20 20 21 21 22 22 22 22 22 22 23 24 24 24 24 24 22 21 20 20 21 22 21
28 30 28 26 26 26 25 24 24 24 26 27 28 28 29 29 29 30 32 35 34 31 29 29 29 27 27 27 28 27 27 27 27 26 25 24 22 21 21 20 20 21 22 22 23 23 23 22 22 23 23 23 24 24 24 24 23 22 20 20 21 22 22
28 30 29 28 27 27 26 26 26 26 27 27 27 29 30 30 29 29 31 33 32 30 29 30 29 27 27 28 28 28 28 28 27 27 25 24 23 22 22 21 21 22 22 23 23 24 24 23 23 23 23 23 23 24 24 24 23 21 20 20 21 22 22
27 28 28 28 28 28 27 27 27 26 26 25 25 29 31 31 29 30 30 31 29 29 31 31 29 27 27 28 29 29 29 29 28 27 26 25 24 24 24 23 23 23 23 24 24 24 24 23 23 22 22 23 23 23 24 24 22 22 21 20 21 22 22
26 27 28 28 28 28 27 28 29 28 26 24 24 27 30 31 31 31 31 31 28 28 31 32 30 29 29 29 30 30 30 30 29 28 27 26 26 26 25 24 24 24 24 25 25 25 24 23 23 22 22 23 23 23 23 23 22 21 21 21 21 22 22
25 26 26 27 28 28 28 28 29 30 28 25 24 25 27 30 32 32 32 33 32 30 31 33 32 31 31 30 31 31 31 31 30 29 28 27 27 27 26 25 25 25 24 25 25 25 24 24 24 23 22 23 23 23 23 22 21 21 22 22 22 21 21
25 25 25 25 26 27 28 27 27 29 29 27 26 26 27 30 33 33 33 35 35 33 33 34 33 33 32 31 31 32 32 31 30 29 29 28 27 27 26 26 26 25 25 25 25 25 24 24 24 23 22 22 23 24 23 22 21 21 22 23 23 22 21
23 24 24 24 24 25 26 26 26 27 28 28 27 27 27 28 31 33 33 34 35 34 33 34 34 33 32 31 31 32 31 31 30 30 29 28 27 27 27 27 27 26 26 25 25 25 25 24 24 24 23 23 23 23 23 23 22 22 22 24 24 23 22
19 20 21 21 22 23 24 25 26 26 27 29 28 27 26 26 28 31 32 33 36 35 33 33 34 33 31 31 31 31 31 31 30 30 29 28 27 27 27 27 27 27 26 25 25 25 25 25 25 24 23 23 23 23 23 23 23 22 23 24 24 23 23
15 17 19 20 21 23 24 25 25 25 25 26 28 29 27 25 26 30 32 33 35 35 33 32 33 32 30 30 30 30 30 30 30 29 28 27 27 27 27 27 27 26 26 26 25 25 25 25 25 24 24 24 23 22 23 23 23 23 23 24 24 24 24
13 15 18 20 21 22 23 25 26 25 24 24 25 27 27 26 25 27 31 32 34 35 34 33 33 32 30 30 30 29 29 29 29 28 28 28 27 27 27 27 26 26 26 26 25 24 25 25 25 25 25 25 23 22 23 23 23 23 23 23 23 24 25
16 17 18 19 20 20 21 23 26 26 25 25 25 25 26 28 28 27 28 30 32 34 35 34 32 31 30 30 30 29 28 28 28 28 29 29 27 27 27 27 27 27 27 26 25 25 25 26 27 27 26 25 24 24 24 25 24 24 24 24 24 25 26
18 19 20 21 21 21 21 23 26 27 26 26 26 26 27 29 30 29 28 29 31 35 36 34 33 32 30 30 30 29 29 28 28 29 29 29 28 27 28 27 27 27 27 27 26 26 26 27 27 26 26 26 26 25 25 26 26 26 25 24 24 25 26
19 19 20 21 22 22 22 24 26 27 27 27 26 27 28 29 30 30 29 29 31 35 36 35 33 32 29 29 29 29 29 28 28 28 28 28 28 28 28 28 27 27 27 27 27 27 27 28 27 26 26 26 27 26 26 27 28 28 27 26 25 26 28
20 20 20 21 22 22 23 24 25 27 28 27 27 28 29 29 29 29 30 29 30 33 36 36 34 31 28 27 28 29 29 28 27 27 27 27 28 27 27 27 27 27 27 28 28 28 28 28 28 27 27 27 28 28 27 28 28 29 29 27 24 26 30
22 21 22 22 23 23 24 25 25 26 28 28 27 28 29 30 29 29 30 30 29 31 34 36 35 30 27 27 27 28 29 28 27 27 26 26 27 27 27 27 27 28 28 29 29 29 29 29 29 29 29 29 29 29 29 30 30 30 31 29 26 28 33
23 23 23 24 24 24 25 26 26 27 28 28 27 28 29 30 29 29 30 31 30 31 33 36 37 33 28 27 28 29 30 29 28 28 27 26 26 26 27 28 28 28 29 29 30 29 29 30 30 30 30 29 30 30 31 31 32 31 31 31 30 32 36
23 24 24 24 25 26 26 27 26 26 27 28 29 29 30 29 29 30 30 30 31 32 32 35 38 37 32 29 30 31 31 30 29 29 28 26 26 26 27 28 29 29 29 30 30 30 30 30 31 31 31 30 30 31 31 32 32 32 31 31 32 33 35
24 24 24 24 25 26 27 27 27 27 28 29 30 31 31 30 30 30 30 30 32 33 33 35 39 39 36 34 34 34 33 32 30 30 29 28 27 27 28 29 29 29 29 30 30 31 31 31 31 31 31 31 30 31 31 30 30 31 31 31 32 33 35
25 25 25 24 24 26 27 27 27 28 30 31 31 31 32 31 31 32 32 31 32 33 34 35 37 38 37 35 36 37 36 34 32 31 31 31 30 30 30 30 30 30 30 31 31 31 31 31 31 31 31 31 31 31 30 30 30 31 32 32 33 34 35
25 25 25 25 25 26 26 27 28 29 30 31 30 31 32 32 33 33 33 32 33 34 35 35 35 36 35 35 36 38 38 37 35 33 33 33 33 32 32 32 32 32 32 31 31 31 30 30 30 30 31 31 31 31 31 30 31 31 32 34 35 35 35
25 26 26 26 26 26 26 27 28 29 30 30 29 31 34 34 34 34 33 32 35 37 38 37 35 34 34 34 35 36 38 39 38 36 35 35 36 35 35 34 33 33 34 33 32 31 31 30 30 31 31 32 32 32 32 32 32 31 32 33 34 35 35
26 25 26 27 27 26 25 26 28 29 29 29 30 33 37 38 36 34 33 34 37 39 40 39 36 34 33 33 33 34 36 37 38 38 38 38 38 37 37 36 35 35 35 35 34 33 32 32 32 33 33 34 35 35 35 35 35 35 36 37 38 38 39
27 26 26 27 28 28 26 25 25 26 29 32 33 33 34 36 38 37 35 37 39 40 39 38 35 34 34 33 33 33 34 36 38 39 39 40 40 38 37 37 37 37 36 36 36 35 35 34 35 35 35 36 36 37 36 36 37 37 38 39 40 41 41
29 27 26 26 27 28 26 24 23 24 28 33 33 30 28 32 37 38 37 39 41 40 38 35 33 33 32 32 32 33 35 37 39 38 38 38 39 39 38 39 39 38 38 38 37 36 36 36 36 36 36 37 37 37 38 37 37 37 38 39 41 43 43
32 30 28 26 27 26 25 24 23 23 25 32 35 32 28 28 34 37 37 41 44 43 37 32 29 28 29 30 32 34 36 38 39 40 39 39 39 40 40 40 40 40 40 39 38 37 37 37 37 37 37 37 38 38 38 38 38 39 40 42 43 44 44
34 33 31 29 28 27 24 23 23 24 24 28 33 33 28 26 31 37 39 41 44 42 37 31 27 26 26 27 30 33 34 34 35 37 38 38 39 41 43 42 41 39 39 39 39 38 38 38 38 38 38 38 38 38 38 38 40 41 43 43 42 42 42
35 35 34 31 30 29 26 23 23 24 24 25 26 25 20 17 24 36 40 40 40 40 38 36 32 30 27 26 28 30 31 32 33 34 35 36 38 41 44 44 41 39 38 39 39 39 39 40 40 41 41 41 40 39 39 40 41 42 42 40 39 39 38
Wind_Direction
269 270 270 272 274 273 278 276 256 242 243 241 230 222 225 228 228 228 228 226 223 222 226 231 231 232 235 236 236 236 236 238 240 239 238 240 242 243 245 246 246 246 247 248 249 251 250 248 248 249 255 260 260 255 253 253 255 255 255 255 255 252 244
268 267 266 268 270 271 274 270 255 245 243 236 227 224 227 229 228 227 224 223 224 224 228 230 229 232 235 235 236 237 237 239 240 240 240 241 243 245 247 247 247 246 247 249 251 251 251 249 248 249 253 255 255 254 254 252 252 252 253 253 253 249 241
269 266 264 261 261 264 268 263 253 248 242 234 229 226 227 228 226 225 224 225 226 227 230 230 229 233 234 234 236 237 238 239 239 239 239 241 243 245 248 249 249 250 251 251 250 250 251 250 249 248 250 251 251 253 255 254 253 252 253 253 250 246 243
270 269 265 258 251 251 258 258 254 251 243 235 232 229 229 230 228 226 227 229 228 228 231 232 231 235 235 233 236 238 238 239 239 239 240 242 244 246 249 252 252 253 254 252 250 250 251 250 249 248 249 251 253 253 254 254 253 253 252 252 249 246 246
260 266 267 261 251 241 243 250 251 249 241 235 233 232 232 235 233 230 230 231 230 229 229 229 230 234 233 233 236 237 238 238 238 238 239 242 245 248 253 256 255 255 254 254 252 250 249 249 249 249 250 252 254 255 256 254 252 251 252 253 250 248 249
254 258 260 260 255 242 235 238 245 250 244 238 237 235 234 236 236 234 232 231 231 228 223 222 226 229 230 233 237 238 238 239 238 238 239 241 245 250 255 256 255 256 256 254 252 251 249 249 249 251 252 254 256 257 258 257 253 251 252 254 254 252 253
252 254 253 253 254 246 235 231 236 246 247 241 240 240 239 239 238 237 234 231 230 229 222 218 220 223 227 232 236 238 239 240 240 240 240 241 244 249 254 256 257 258 257 254 252 251 250 249 249 251 253 255 257 258 259 259 256 252 253 254 255 256 258
247 250 252 250 248 243 236 230 231 239 244 241 237 235 236 238 238 237 235 231 229 227 224 220 220 221 225 230 233 236 238 239 240 242 242 244 247 251 255 258 259 258 257 255 253 251 250 249 249 251 254 256 257 258 260 259 256 253 252 253 254 256 258
244 245 246 246 244 241 237 235 232 236 240 238 236 234 231 233 237 236 233 230 227 225 224 224 223 222 225 229 232 234 236 237 239 241 243 247 250 254 257 259 259 259 258 257 255 253 252 251 251 253 255 258 259 259 259 258 255 251 250 251 253 253 254
247 245 244 244 243 241 239 239 236 236 237 237 238 238 234 234 236 234 230 229 228 227 225 225 224 223 225 229 231 233 233 235 238 240 243 247 251 255 258 260 261 261 260 258 256 255 254 254 255 257 259 261 261 259 258 256 254 250 247 249 252 251 251
247 247 248 247 244 241 240 239 237 239 239 238 240 239 237 238 238 233 230 230 230 228 226 226 224 222 224 228 230 232 234 234 237 240 243 247 251 255 258 261 262 261 260 259 258 257 256 256 258 260 263 264 263 260 258 255 254 251 248 248 250 251 251
245 243 245 247 243 240 241 240 239 241 240 238 240 240 238 240 241 238 232 228 227 227 225 225 225 222 223 227 229 232 234 235 237 239 243 247 251 254 257 259 260 259 259 259 258 257 256 257 259 262 264 264 264 261 258 255 253 252 250 248 249 250 250
246 240 240 243 242 239 240 241 241 243 243 242 242 241 240 241 240 239 234 225 221 225 226 225 224 224 225 227 230 233 234 236 237 239 243 247 250 253 256 257 258 258 258 257 257 257 257 258 260 263 264 264 263 261 257 254 253 252 252 250 249 250 250
248 241 238 240 241 238 238 240 242 244 245 245 246 244 243 243 240 235 231 224 218 219 225 226 224 224 226 228 231 234 235 236 237 239 242 246 250 253 255 256 257 256 254 255 256 256 257 258 260 263 264 263 262 260 257 255 253 253 253 251 250 250 250
247 242 237 236 238 237 236 238 239 241 244 245 247 246 244 245 242 234 228 224 218 215 220 225 224 223 226 229 232 235 235 236 238 240 243 246 249 251 253 254 254 252 251 251 254 255 255 257 260 263 264 263 261 260 259 256 254 254 254 253 252 251 250
244 241 236 234 238 238 236 237 237 239 242 245 246 246 246 247 242 235 229 225 219 217 219 222 222 223 226 230 233 236 238 239 241 242 243 245 247 249 250 250 249 248 248 250 251 252 254 256 259 262 263 263 262 261 260 258 255 254 255 255 254 252 250
243 240 235 236 241 241 238 239 240 241 243 244 246 246 248 250 242 233 231 229 223 220 221 221 221 222 226 231 235 239 241 242 243 244 245 246 247 248 249 248 246 246 246 248 249 250 252 255 257 260 261 262 262 262 261 259 257 255 255 254 254 254 252
246 240 234 236 244 247 243 240 242 246 246 246 247 247 248 251 243 233 233 232 228 225 225 224 223 223 227 233 238 240 242 244 245 246 247 247 248 248 247 246 245 244 244 245 246 248 251 253 255 257 259 260 262 263 262 260 258 256 253 253 254 254 251
251 240 236 240 248 251 248 244 246 250 250 247 248 249 249 251 248 240 236 233 230 229 230 229 228 228 232 236 238 239 241 243 246 247 248 248 248 246 246 245 244 243 243 242 243 246 249 252 254 256 256 258 260 263 263 261 258 255 253 252 252 252 251
261 251 246 249 254 256 254 253 254 255 254 252 251 251 250 251 251 245 238 235 233 232 234 235 234 234 236 236 236 236 239 242 245 247 249 249 248 246 245 244 243 242 242 241 241 244 248 250 251 252 252 253 256 260 262 261 259 256 253 251 249 250 251
263 261 259 259 260 261 260 258 257 256 254 255 255 252 248 246 247 245 240 239 239 236 236 239 239 237 237 236 235 236 238 241 244 247 249 249 248 246 245 244 243 242 241 241 241 243 246 247 248 249 250 250 252 254 258 260 260 258 255 252 250 250 252
264 263 264 264 263 262 260 258 258 258 256 255 256 254 249 244 243 243 242 243 245 241 237 239 239 236 235 236 236 238 239 241 243 245 247 247 246 244 244 244 243 242 242 242 242 243 245 246 248 249 250 249 249 251 254 258 260 261 259 257 255 254 255
270 267 265 266 265 264 262 260 261 262 259 256 256 255 252 247 243 244 245 246 248 243 237 236 235 233 234 237 239 241 242 243 244 244 244 244 243 243 244 244 244 244 244 245 244 245 246 246 247 248 248 249 250 251 253 255 258 261 261 261 262 263 261
275 272 270 268 266 265 264 263 263 264 263 261 260 258 255 250 246 244 244 246 247 243 236 232 231 232 235 238 240 242 243 244 244 243 243 244 244 244 245 246 247 247 246 246 245 244 245 246 247 247 248 250 251 252 253 254 256 258 260 261 263 263 261
279 277 275 273 270 268 267 265 265 265 263 262 261 259 255 251 248 245 243 242 244 242 236 231 230 234 238 240 240 242 243 244 243 241 242 244 245 245 246 246 247 247 246 245 244 243 244 245 247 248 249 250 251 252 254 254 255 257 259 260 257 253 256
280 279 277 276 275 272 270 268 266 264 262 261 260 258 255 251 246 244 242 241 241 242 239 235 235 237 240 242 242 242 242 242 240 238 241 245 246 246 246 246 247 247 246 245 244 244 244 245 247 249 249 250 251 252 254 255 256 257 258 259 256 253 257
280 280 278 277 276 274 272 270 267 264 263 261 257 255 253 249 244 242 242 242 242 243 242 241 240 239 239 242 244 243 242 240 238 238 242 247 249 250 249 248 248 248 248 248 247 246 246 246 247 249 250 251 251 252 253 254 255 257 258 259 259 259 260
281 280 279 278 276 275 273 271 266 261 259 257 255 253 251 247 244 242 241 242 243 244 244 243 241 239 239 241 244 244 244 242 239 240 244 248 252 253 252 250 250 249 248 249 249 249 249 249 249 250 250 251 251 251 251 252 254 256 258 260 261 262 262
282 281 280 279 277 275 274 272 267 260 257 255 254 252 248 245 245 243 241 241 242 243 242 238 235 235 237 238 240 243 245 245 243 242 244 247 251 253 253 252 251 250 249 248 249 250 251 251 251 251 251 250 250 250 251 252 254 257 259 260 261 262 262
280 280 279 279 279 277 276 274 270 263 258 256 254 250 245 245 246 244 242 242 242 241 239 235 233 234 236 236 236 239 241 243 245 245 244 245 249 252 253 253 252 251 249 248 249 249 249 250 251 251 251 251 250 251 252 254 256 258 260 260 260 260 262
278 279 279 278 277 277 278 277 274 269 260 253 251 247 246 247 247 243 242 245 244 240 237 236 236 236 236 236 237 238 239 242 245 246 246 246 248 250 251 252 253 252 249 248 249 249 248 249 249 249 250 251 251 252 254 256 258 260 261 261 261 262 265
275 276 278 278 277 277 276 277 278 273 260 248 244 242 244 248 247 241 239 242 241 238 234 233 234 235 235 236 238 239 240 243 245 247 248 248 248 250 251 252 253 253 250 248 249 250 250 251 251 252 252 253 253 254 255 258 259 260 261 262 264 267 270
274 273 274 277 279 280 279 279 280 274 258 248 244 244 248 252 246 238 237 237 234 231 229 229 230 233 235 237 239 240 240 240 242 245 248 249 250 250 251 253 253 253 251 248 249 251 252 253 255 256 257 257 257 257 257 257 258 259 261 264 267 269 270
276 274 273 274 278 282 283 282 282 274 257 245 244 250 257 254 243 235 234 231 225 221 223 226 230 234 236 238 241 241 240 239 239 240 243 248 251 252 251 253 254 253 251 249 249 251 253 256 257 258 258 258 258 259 259 259 259 260 262 264 266 267 267
278 277 274 273 273 278 281 281 280 274 251 235 236 245 252 250 242 234 227 222 218 217 221 228 232 234 236 238 239 241 243 244 244 242 240 243 248 252 252 252 252 252 251 250 249 251 254 256 257 257 258 259 259 260 261 261 261 261 262 262 262 263 264
277 277 276 274 272 273 276 275 272 267 251 237 239 246 249 246 241 232 222 216 214 217 225 234 235 232 233 239 242 242 243 246 248 249 247 245 248 252 253 253 252 250 249 249 250 252 254 254 255 255 257 259 260 262 263 263 262 261 261 261 261 261 262
274 275 275 274 273 273 275 272 267 263 258 252 250 253 256 254 242 231 225 222 223 228 235 239 237 232 233 242 249 249 249 251 253 254 254 252 252 254 254 253 251 248 247 248 251 253 255 256 257 258 259 260 261 264 265 265 264 264 263 262 262 263 265
Height
5778 5777 5776 5775 5775 5774 5775 5774 5773 5774 5775 5776 5777 5780 5782 5784 5786 5788 5790 5791 5793 5794 5796 5797 5798 5799 5799 5800 5801 5802 5803 5803 5804 5805 5805 5806 5806 5807 5808 5808 5809 5809 5810 5811 5811 5811 5811 5811 5811 5811 5811 5811 5812 5812 5812 5812 5812 5812 5812 5812 5812 5813 5813
5774 5774 5773 5772 5772 5773 5773 5774 5773 5772 5773 5775 5777 5780 5782 5783 5784 5786 5788 5790 5791 5793 5794 5795 5796 5797 5797 5798 5799 5800 5801 5802 5803 5804 5804 5804 5805 5806 5806 5807 5807 5808 5808 5809 5810 5809 5809 5809 5809 5809 5809 5810 5810 5811 5811 5811 5811 5811 5811 5811 5812 5812 5812
5772 5772 5771 5770 5770 5771 5772 5772 5772 5772 5773 5774 5776 5778 5780 5780 5782 5784 5785 5787 5788 5790 5791 5792 5793 5794 5794 5796 5797 5798 5799 5801 5801 5802 5802 5803 5804 5804 5805 5805 5806 5806 5807 5808 5808 5808 5808 5808 5807 5807 5807 5808 5809 5809 5810 5810 5810 5810 5810 5810 5811 5811 5811
5770 5770 5770 5769 5769 5769 5770 5771 5770 5771 5771 5772 5774 5776 5778 5779 5780 5782 5782 5783 5784 5786 5788 5789 5791 5792 5792 5794 5795 5796 5798 5799 5800 5800 5800 5801 5802 5802 5803 5804 5804 5804 5805 5806 5806 5806 5806 5806 5806 5806 5806 5806 5807 5808 5808 5808 5808 5809 5809 5809 5810 5810 5810
5767 5768 5768 5768 5768 5768 5769 5769 5769 5769 5769 5770 5773 5775 5776 5778 5779 5780 5780 5781 5781 5783 5784 5786 5789 5790 5790 5791 5793 5794 5795 5797 5798 5799 5799 5800 5800 5801 5802 5802 5803 5803 5803 5804 5804 5805 5805 5804 5804 5804 5804 5804 5805 5806 5806 5807 5807 5807 5807 5808 5808 5809 5809
5763 5764 5765 5765 5766 5766 5767 5767 5767 5767 5767 5769 5771 5772 5773 5775 5776 5777 5778 5779 5779 5780 5781 5783 5786 5787 5788 5789 5790 5791 5793 5794 5796 5797 5798 5798 5799 5799 5800 5800 5801 5801 5802 5802 5803 5803 5803 5803 5803 5803 5803 5803 5803 5804 5804 5805 5805 5806 5806 5806 5807 5808 5808
5759 5760 5761 5761 5762 5763 5764 5764 5764 5765 5766 5767 5769 5770 5770 5771 5772 5774 5776 5776 5777 5778 5778 5780 5781 5783 5785 5786 5788 5789 5791 5792 5793 5795 5796 5797 5797 5798 5798 5799 5799 5800 5800 5801 5801 5801 5801 5802 5802 5802 5801 5801 5801 5802 5802 5803 5804 5804 5804 5804 5805 5806 5806
5756 5756 5757 5758 5759 5759 5760 5760 5760 5761 5762 5763 5764 5765 5766 5767 5768 5771 5773 5773 5774 5775 5776 5777 5778 5780 5782 5784 5786 5787 5789 5790 5791 5792 5793 5794 5795 5796 5796 5797 5798 5798 5799 5799 5800 5800 5800 5800 5800 5800 5799 5799 5799 5800 5800 5801 5801 5802 5802 5802 5803 5804 5804
5753 5753 5753 5755 5756 5756 5757 5757 5758 5758 5759 5759 5760 5761 5761 5762 5764 5767 5769 5770 5771 5772 5773 5775 5777 5778 5780 5782 5784 5785 5787 5788 5788 5789 5791 5792 5792 5793 5794 5795 5796 5796 5797 5798 5798 5798 5799 5799 5798 5798 5797 5797 5797 5798 5798 5798 5799 5800 5800 5800 5801 5801 5801
5751 5750 5751 5752 5752 5753 5754 5755 5756 5756 5757 5757 5758 5759 5759 5760 5761 5763 5766 5767 5768 5770 5772 5773 5775 5776 5778 5780 5782 5783 5784 5785 5786 5787 5788 5789 5790 5791 5792 5793 5794 5795 5795 5796 5796 5797 5797 5797 5796 5796 5795 5795 5795 5795 5796 5796 5796 5797 5798 5798 5798 5799 5799
5746 5748 5749 5749 5750 5750 5751 5752 5752 5753 5754 5754 5755 5756 5758 5758 5759 5761 5764 5765 5766 5768 5770 5771 5772 5773 5775 5777 5779 5780 5781 5782 5784 5785 5786 5787 5789 5789 5790 5791 5792 5793 5793 5794 5794 5795 5794 5794 5794 5794 5793 5793 5793 5793 5793 5793 5794 5795 5795 5796 5796 5796 5797
5741 5743 5745 5746 5747 5748 5749 5749 5749 5749 5750 5751 5752 5753 5754 5755 5757 5759 5761 5763 5764 5766 5767 5768 5770 5771 5773 5774 5776 5777 5778 5779 5781 5782 5783 5785 5786 5787 5788 5789 5789 5790 5791 5791 5792 5792 5792 5792 5792 5791 5791 5791 5791 5791 5791 5791 5792 5792 5793 5794 5794 5794 5795
5736 5739 5741 5742 5744 5745 5746 5746 5746 5747 5747 5749 5750 5751 5751 5752 5753 5756 5758 5760 5762 5764 5765 5765 5767 5769 5770 5771 5773 5774 5775 5776 5778 5779 5780 5782 5783 5784 5785 5786 5787 5787 5788 5788 5789 5789 5789 5789 5789 5789 5789 5788 5788 5788 5788 5789 5790 5790 5791 5791 5792 5792 5793
5733 5735 5737 5739 5740 5741 5742 5743 5744 5745 5746 5747 5747 5748 5749 5750 5751 5752 5755 5757 5759 5761 5762 5763 5764 5765 5767 5769 5770 5771 5773 5774 5775 5776 5777 5779 5780 5781 5782 5783 5784 5784 5785 5785 5785 5786 5786 5786 5786 5786 5786 5786 5786 5786 5786 5787 5788 5788 5788 5789 5790 5790 5790
5730 5732 5735 5736 5736 5737 5738 5739 5740 5741 5742 5743 5744 5745 5746 5747 5748 5750 5752 5753 5755 5757 5758 5759 5761 5762 5764 5766 5767 5768 5770 5771 5772 5773 5774 5775 5776 5777 5778 5779 5780 5781 5782 5782 5782 5783 5783 5783 5784 5784 5784 5784 5784 5784 5784 5785 5786 5786 5786 5786 5787 5788 5788
5727 5729 5732 5733 5733 5734 5735 5735 5737 5738 5739 5740 5741 5742 5743 5744 5745 5747 5749 5749 5751 5752 5754 5755 5757 5759 5761 5762 5764 5765 5767 5768 5769 5770 5771 5772 5772 5773 5774 5775 5777 5778 5778 5779 5779 5780 5780 5780 5781 5781 5781 5781 5781 5781 5782 5783 5783 5784 5784 5784 5785 5786 5786
5726 5727 5729 5730 5731 5731 5732 5733 5734 5735 5736 5737 5738 5739 5740 5741 5742 5744 5746 5747 5748 5750 5751 5752 5754 5756 5757 5759 5761 5763 5764 5765 5766 5767 5768 5768 5769 5770 5771 5771 5773 5774 5775 5776 5776 5777 5777 5777 5778 5778 5779 5779 5779 5779 5779 5780 5781 5781 5782 5782 5782 5783 5784
5724 5725 5726 5727 5728 5728 5729 5731 5732 5733 5734 5735 5736 5737 5737 5738 5739 5741 5743 5745 5746 5747 5748 5750 5751 5753 5754 5756 5758 5759 5761 5762 5763 5764 5765 5765 5766 5766 5767 5768 5769 5771 5772 5773 5773 5773 5774 5774 5775 5776 5776 5776 5776 5776 5776 5777 5778 5779 5779 5779 5780 5781 5782
5722 5723 5724 5725 5725 5725 5726 5727 5729 5729 5730 5732 5733 5734 5735 5736 5737 5738 5740 5741 5743 5744 5746 5748 5749 5750 5751 5753 5754 5756 5757 5759 5760 5761 5761 5762 5763 5763 5763 5765 5766 5768 5769 5769 5770 5770 5771 5771 5773 5773 5773 5773 5773 5774 5773 5774 5775 5776 5776 5777 5778 5778 5779
5721 5721 5722 5722 5723 5724 5724 5725 5725 5726 5727 5728 5729 5730 5732 5733 5734 5735 5736 5738 5740 5742 5743 5745 5746 5748 5749 5750 5751 5752 5753 5755 5757 5758 5758 5759 5759 5760 5761 5762 5763 5764 5765 5766 5767 5767 5768 5769 5770 5770 5770 5770 5771 5771 5770 5770 5771 5772 5773 5774 5775 5776 5777
5720 5720 5720 5720 5721 5722 5723 5723 5723 5723 5724 5725 5726 5727 5728 5729 5730 5731 5733 5735 5737 5739 5740 5742 5744 5745 5746 5747 5747 5749 5750 5752 5753 5754 5754 5755 5756 5757 5758 5759 5760 5761 5761 5762 5763 5764 5764 5765 5766 5767 5767 5768 5768 5768 5767 5767 5768 5769 5770 5772 5773 5774 5775
5718 5718 5718 5718 5719 5720 5721 5721 5720 5720 5721 5722 5723 5725 5726 5726 5727 5729 5730 5732 5734 5735 5737 5739 5740 5742 5743 5744 5744 5746 5747 5749 5750 5751 5751 5752 5753 5754 5755 5756 5757 5757 5757 5758 5759 5761 5761 5762 5763 5764 5764 5765 5765 5765 5765 5765 5765 5766 5767 5769 5770 5771 5772
5716 5716 5716 5716 5716 5717 5718 5718 5718 5718 5718 5719 5720 5721 5722 5723 5725 5726 5727 5729 5730 5731 5733 5735 5737 5739 5740 5741 5741 5742 5744 5745 5747 5747 5748 5749 5750 5751 5751 5752 5753 5754 5755 5755 5757 5758 5759 5760 5761 5761 5761 5761 5762 5762 5763 5763 5763 5763 5764 5766 5767 5768 5768
5712 5713 5713 5713 5713 5714 5714 5714 5715 5715 5716 5717 5717 5718 5718 5719 5722 5723 5724 5725 5726 5727 5729 5731 5733 5735 5736 5737 5738 5739 5740 5742 5743 5744 5745 5746 5746 5747 5747 5748 5749 5750 5752 5753 5754 5755 5756 5756 5757 5758 5758 5758 5759 5759 5760 5760 5760 5760 5761 5763 5765 5764 5762
5708 5709 5710 5709 5710 5710 5710 5710 5711 5712 5712 5713 5714 5714 5714 5715 5717 5719 5720 5721 5723 5724 5725 5727 5729 5730 5732 5734 5735 5735 5737 5738 5740 5741 5741 5742 5742 5742 5743 5744 5745 5746 5748 5749 5750 5751 5752 5753 5753 5754 5755 5755 5755 5756 5756 5757 5757 5757 5758 5760 5763 5761 5758
5705 5705 5706 5706 5706 5706 5706 5706 5707 5708 5708 5709 5709 5709 5709 5711 5712 5714 5716 5717 5719 5720 5721 5723 5724 5726 5728 5729 5730 5732 5733 5735 5736 5737 5738 5738 5738 5738 5739 5740 5741 5742 5744 5745 5746 5747 5748 5749 5749 5750 5751 5751 5752 5752 5753 5753 5753 5754 5755 5756 5757 5757 5756
5702 5702 5702 5702 5702 5702 5702 5702 5703 5704 5705 5705 5705 5704 5705 5706 5708 5710 5711 5713 5714 5715 5717 5719 5720 5721 5723 5725 5726 5727 5729 5731 5732 5733 5734 5734 5734 5735 5736 5736 5738 5739 5740 5741 5743 5744 5744 5745 5745 5746 5746 5747 5748 5748 5749 5749 5750 5750 5751 5751 5752 5752 5752
5698 5698 5698 5698 5698 5698 5698 5698 5698 5699 5700 5700 5700 5700 5701 5702 5704 5705 5707 5708 5709 5711 5713 5714 5716 5717 5719 5720 5722 5723 5725 5726 5728 5729 5730 5730 5730 5731 5732 5733 5734 5735 5736 5737 5738 5739 5740 5741 5741 5741 5742 5743 5743 5744 5745 5745 5746 5746 5746 5747 5747 5747 5747
5695 5694 5694 5694 5694 5694 5693 5693 5693 5694 5694 5695 5695 5696 5697 5698 5699 5701 5702 5704 5705 5706 5708 5709 5711 5712 5714 5716 5717 5719 5720 5722 5723 5724 5725 5726 5726 5727 5728 5729 5730 5731 5732 5733 5734 5735 5735 5736 5737 5737 5738 5738 5739 5740 5741 5741 5741 5742 5742 5742 5743 5743 5743
5692 5691 5691 5691 5690 5690 5689 5689 5689 5689 5690 5690 5691 5692 5692 5694 5695 5696 5698 5700 5701 5702 5704 5705 5706 5708 5709 5711 5712 5714 5716 5717 5719 5720 5721 5722 5722 5723 5723 5724 5725 5726 5727 5728 5729 5730 5731 5731 5732 5733 5733 5734 5735 5735 5736 5736 5737 5737 5737 5737 5737 5738 5738
5689 5688 5688 5687 5687 5686 5686 5685 5684 5685 5686 5686 5687 5688 5688 5688 5690 5692 5694 5695 5696 5698 5700 5700 5702 5703 5704 5706 5708 5709 5711 5713 5714 5716 5717 5717 5718 5719 5719 5720 5721 5722 5723 5724 5724 5725 5726 5726 5727 5728 5729 5729 5730 5731 5731 5731 5731 5732 5732 5732 5732 5733 5733
5685 5685 5684 5683 5683 5682 5682 5682 5680 5681 5682 5682 5683 5683 5683 5683 5685 5687 5690 5690 5692 5693 5694 5695 5697 5698 5700 5701 5703 5705 5706 5708 5710 5711 5712 5713 5714 5715 5715 5716 5716 5717 5718 5719 5720 5721 5721 5722 5722 5723 5724 5725 5725 5726 5726 5726 5727 5727 5727 5727 5727 5727 5727
5681 5681 5680 5679 5678 5678 5678 5678 5677 5676 5677 5678 5679 5679 5680 5680 5680 5682 5685 5686 5687 5688 5688 5690 5692 5694 5695 5697 5698 5700 5702 5703 5705 5706 5707 5708 5708 5710 5711 5712 5712 5713 5714 5715 5716 5716 5717 5717 5718 5718 5719 5719 5720 5720 5721 5721 5722 5722 5722 5722 5722 5722 5722
5676 5676 5676 5676 5675 5674 5674 5673 5673 5673 5673 5674 5675 5675 5676 5676 5676 5678 5680 5681 5682 5683 5684 5686 5688 5689 5691 5693 5694 5695 5697 5698 5699 5701 5702 5703 5704 5705 5706 5707 5707 5708 5709 5710 5711 5712 5712 5713 5713 5714 5714 5714 5714 5715 5715 5716 5716 5717 5717 5717 5717 5717 5717
5671 5671 5672 5672 5671 5670 5670 5670 5669 5669 5669 5670 5671 5672 5672 5672 5672 5674 5675 5676 5677 5678 5681 5683 5685 5686 5687 5689 5690 5691 5692 5693 5694 5695 5697 5698 5699 5700 5701 5702 5702 5703 5703 5705 5706 5707 5708 5708 5709 5709 5709 5709 5709 5710 5710 5710 5711 5711 5711 5711 5711 5711 5711
5667 5667 5667 5667 5667 5667 5667 5667 5666 5666 5666 5666 5667 5668 5668 5668 5669 5670 5671 5672 5673 5675 5677 5679 5681 5682 5683 5684 5686 5687 5688 5689 5690 5691 5692 5693 5694 5695 5695 5696 5697 5698 5698 5699 5700 5701 5703 5703 5704 5704 5704 5704 5704 5705 5705 5705 5705 5706 5706 5706 5706 5706 5706
5662 5662 5662 5662 5662 5662 5662 5663 5662 5662 5662 5663 5663 5664 5664 5665 5666 5667 5669 5670 5672 5673 5674 5675 5676 5677 5679 5680 5682 5683 5685 5685 5686 5687 5688 5689 5690 5690 5690 5691 5691 5692 5693 5694 5695 5696 5697 5698 5699 5699 5699 5699 5700 5700 5700 5700 5700 5701 5700 5700 5700 5700 5700